Hourly Data Report for October 01, 2013

All times are specified in Local Standard Time (LST). Add 1 hour to adjust for Daylight Saving Time where and when it is observed.

CAPE DORSET A
NUNAVUT

64°13'49.000" N
76°31'30.000" W
48.20 m
2400637
71366
YTE

Download Data

Hourly Data (October 2013)
Hourly Data Report for October 1, 2013
Temp Definition
°C
Dew Point Temp Definition
°C
Rel Hum Definition
%
Wind Dir Definition
10's deg

Wind Spd Definition
km/h
Visibility Definition
km
Stn Press Definition
kPa
Hmdx Definition


Wind Chill Definition


Weather Definition


TIME
00:00 Legend Double Dagger 0.2 -1.7 87 29 28 16.1 99.36     LegendNANA
01:00 Legend Double Dagger 0.3 -1.9 85 29 32 16.1 99.36     LegendNANA
02:00 Legend Double Dagger 0.1 -1.8 87 30 28 16.1 99.44     LegendNANA
03:00 Legend Double Dagger 0.1 -1.5 89 30 28 16.1 99.51     LegendNANA
04:00 Legend Double Dagger 0.2 -1.4 89 28 22 16.1 99.57     LegendNANA
05:00 Legend Double Dagger 0.2 -1.6 88 29 24 16.1 99.58     LegendNANA
06:00 Legend Double Dagger 0.2 -1.4 89 30 22 16.1 99.59     LegendNANA
07:00 Legend Double Dagger 0.1 -1.7 88 29 21 16.1 99.61     LegendNANA
08:00 Legend Double Dagger 0.3 -1.6 87 31 22 16.1 99.66     LegendNANA
09:00 Legend Double Dagger 1.0 -1.6 83 31 17 16.1 99.65     LegendNANA
10:00 Legend Double Dagger 1.6 -1.5 80 32 15 16.1 99.64     LegendNANA
11:00 Legend Double Dagger 1.7 -0.9 83 33 13 16.1 99.66     LegendNANA
12:00 Legend Double Dagger 1.6 -0.7 85 1 13 16.1 99.65     LegendNANA
13:00 Legend Double Dagger 1.6 -0.1 88 1 11 16.1 99.66     LegendNANA
14:00 Legend Double Dagger 1.6 -0.2 88 1 9 16.1 99.65     LegendNANA
15:00 Legend Double Dagger 2.0 -0.5 83 1 13 16.1 99.64     LegendNANA
16:00 Legend Double Dagger 2.2 -0.7 81 1 15 16.1 99.63     LegendNANA
17:00 Legend Double Dagger 1.7 -1.1 82 3 15 16.1 99.63     LegendNANA
18:00 Legend Double Dagger 1.0 -1.2 85 5 13 16.1 99.64     LegendNANA
19:00 Legend Double Dagger 0.6 -1.3 87 5 21 16.1 99.65     LegendNANA
20:00 Legend Double Dagger 0.3 -1.0 91 5 17 16.1 99.62     LegendNANA
21:00 Legend Double Dagger 0.0 -0.7 95 5 22 16.1 99.61   -6 LegendNANA
22:00 Legend Double Dagger -0.1 -0.5 97 5 26 9.7 99.58   -6 LegendNANA
23:00 Legend Double Dagger 0.0 -0.3 98 5 21 6.4 99.54   -5 LegendNANA

Notes on Data Quality.

Legend

  • E = Estimated
  • M = Missing
  • NA = Not Available
  • ‡ = Partner data that is not subject to review by the National Climate Archives
Date modified: